sat.trackr.live / text

‹ back to catalog

STARLINK-1543

NORAD 46053 · 2020-055AC

PAYLOAD ACTIVE UNKNOWN

§ Identity

Operator
Country
US
Launch date
2020-08-07
Launch site
AFETR
Launch vehicle
Mass (kg)
RCS (m²)

Purposes: comms

External: N2YO · Heavens-Above · Gunter

§ Orbital elements

Epoch: 2026-05-25T04:41:04.569792Z

Period
94.01 min
Inclination
53.1589°
Eccentricity
0.0001234
Mean motion
15.31701224 rev/d
Perigee alt
469.9 km
Apogee alt
471.6 km
Semi-major
6,848.9 km
B*
1.9749e-5
RAAN
118.1872°
Arg perigee
85.3237°
Mean anomaly
274.7905°
Rev number
32,079

§ Raw data

STARLINK-15431 46053U 20055AC  26145.19519178  .00000248  00000+0  19749-4 0  99962 46053  53.1589 118.1872 0001234  85.3237 274.7905 15.31701224320798

JSON: /api/v1/satellites/46053 · /tle

For live sub-satellite position, see the globe view (requires WebGL).

§ Visibility from observer

Set your observer location to see the next 7 days of passes ≥ 10°. The values pass through the URL so the page stays shareable.

No JS? Fill the form by hand. The geolocation button needs JavaScript.